Regional Weather Roundup
Issued by NWS State College, PA

Home | Current Version | Previous Version | Graphics & Text | Print | Product List | Glossary Off
Versions: 1 2 3 4 5 6 7 8 9 10 11 12 13 14 15 16 17 18 19 20 21 22 23 24 25 26 27 28 29 30 31 32 33 34 35 36 37 38 39 40 41 42 43 44 45 46 47 48 49 50

000
ASUS41 KCTP 280410
RWRCTP

REGIONAL WEATHER ROUNDUP
NATIONAL WEATHER SERVICE STATE COLLEGE PA
1200 AM EDT THU APR 28 2016

Note: "fair" indicates few or no clouds below 12,000 feet with no
significant weather and/or obstructions to visibility.

* = STATION THAT DOES NOT REPORT PRECIPITATION /E.G. RAIN...SNOW...ETC/
    THUNDER OR FOG.

PAZ002>004-007>009-013>016-020>023-029>032-280500-
WESTERN PENNSYLVANIA

CITY           SKY/WX    TMP DP  RH WIND       PRES   REMARKS
ERIE           CLOUDY    44  29  55 CALM      29.96R
MEADVILLE      PTCLDY    45  21  38 NE8       29.93R
FRANKLIN*      PTCLDY    46  16  29 NE8       29.95R
NEW CASTLE     FAIR      50  26  39 NE8       29.92F
BEAVER COUNTY  NOT AVBL
BUTLER*        PTCLDY    52  30  43 NE9       29.93R
PITTSBURGH INT CLOUDY    56  33  42 N8        29.88S
PITTSBURGH     CLOUDY    54  48  80 N6        29.87S
INDIANA*       CLEAR     52  48  87 CALM      29.92S
LATROBE        CLOUDY    48  48 100 CALM      29.88F
WASHINGTON CO* CLOUDY    52  46  82 CALM      29.89R
$$

PAZ004>006-010>012-017>019-024>028-033>037-041-042-045-046-049>053-280500-
CENTRAL PENNSYLVANIA

CITY           SKY/WX    TMP DP  RH WIND       PRES   REMARKS
BRADFORD       CLOUDY    42  21  43 E5        29.93F
DUBOIS         PTCLDY    49  25  39 NE10      29.90S
CLEARFIELD     PTCLDY    53  27  36 N8        29.90S
JOHNSTOWN      PTCLDY    53  45  74 SE3       29.88F
ALTOONA        CLOUDY    46  44  93 CALM      29.90F
STATE COLLEGE  PTCLDY    51  44  76 N3        29.90F
WILLIAMSPORT   MOCLDY    49  43  80 N3        29.93S
SELINSGROVE    PTCLDY    45  43  93 CALM      29.93F FOG
FT INDIANTOWN  CLOUDY    51  48  89 CALM      29.93F
CAPITAL CITY   CLOUDY    53  47  79 SW5       29.93F
HARRISBURG     CLOUDY    53  47  79 CALM      29.93S
YORK           CLOUDY    52  50  93 NE5       29.92F FOG
$$

PAZ038>040-043-044-047-048-054-055-060>062-067>071-280500-
EASTERN PENNSYLVANIA

CITY           SKY/WX    TMP DP  RH WIND       PRES   REMARKS
SCRANTON       PTCLDY    48  30  49 E3        29.94R
MOUNT POCONO   PTCLDY    42  36  79 N5        29.93R
ALLENTOWN      CLEAR     44  41  89 SW6       29.93S FOG
QUAKERTOWN*    CLEAR     45  43  93 CALM      29.94S
READING        CLOUDY    52  46  80 NW6       29.94R
LANCASTER      CLOUDY    52  49  89 NW3       29.93S FOG
COATESVILLE    CLOUDY    50  50 100 W7        29.94F FOG
POTTSTOWN      CLOUDY    49  46  90 CALM      29.95R FOG
BLUE BELL      CLOUDY    46  45  93 CALM      29.94R
DOYLESTOWN     CLEAR     47  44  90 CALM      29.93R
WILLOW GROVE   NOT AVBL
NORTH PHILA    CLOUDY    50  45  83 W3        29.96R
PHILADELPHIA   CLOUDY    51  45  79 W7        29.96R
$$




USA.gov is the U.S. government's official web portal to all federal, state and local government web resources and services.